Home   Weather   Askim   Past weeks

Flag for Norway Past Weather in Askim, Norway — Yesterday and Last 2 Weeks

Now
32 °F

Fog.


Feels Like: 32 °F
Forecast: 31 / 44 °F
Wind: No wind

Location: Rygge

Current Time: Jan 18, 2017 at 7:26:16 pm

Latest Report: Jan 18, 2017 at 6:50 pm


Visibility: 0 mi

Pressure: 30.27 "Hg

Humidity: 100%

Dew Point: 32 °F

Location of AskimLocation

Past Weather in Askim — Graph

°F

Askim Temperature Yesterday

Maximum temperature yesterday: 32 °F (at 3:50 am)
Minimum temperature yesterday: 21 °F (at 12:20 am)
Average temperature yesterday: 30 °F

High & Low Weather Summary for the Past Weeks

 TemperatureHumidityPressure
High43 °F (Jan 9, 4:20 pm)100% (Jan 6, 4:20 pm)30.66 "Hg (Jan 6, 4:20 pm)
Low10 °F (Jan 5, 6:50 am)43% (Jan 4, 11:20 am)28.50 "Hg (Jan 11, 2:50 pm)
Average30 °F83%29.84 "Hg
* Reported Jan 3 6:20 pm — Jan 18 6:20 pm, Askim, Weather by CustomWeather, © 2017

Note: Actual official high and low records may vary slightly from our data, if they occured in-between our weather recording intervals... More about our weather records

Advertising

Askim Weather History for the Previous 24 Hours

Scroll right to see more
 ConditionsComfort  
Time TempWeatherWind HumidityBarometerVisibility
6:20 pm
Wed, Jan 18
34 °FFog.5 mph100%30.27 "Hg0 mi
5:50 pm32 °FFog.1 mph100%30.27 "Hg0 mi
5:20 pm34 °FFog.3 mph100%30.27 "Hg0 mi
4:50 pm32 °FIce fog.2 mph100%30.27 "Hg0 mi
4:20 pm32 °FFog.1 mph100%30.27 "Hg0 mi
3:50 pm32 °FFog.1 mph100%30.27 "Hg0 mi
3:20 pm34 °FFog.2 mph93%30.27 "Hg0 mi
2:50 pm34 °FFog.3 mph100%30.27 "Hg0 mi
2:20 pm34 °FFog.2 mph100%30.30 "Hg0 mi
1:50 pm34 °FFog.2 mph100%30.30 "Hg0 mi
1:20 pm32 °FFog.2 mph100%30.30 "Hg0 mi
12:50 pm32 °FFog.2 mph100%30.30 "Hg0 mi
12:20 pm32 °FFog.2 mph100%30.30 "Hg0 mi
11:50 am32 °FFog.3 mph100%30.33 "Hg0 mi
11:20 am32 °FIce fog.5 mph100%30.33 "Hg0 mi
10:50 am32 °FIce fog.6 mph100%30.33 "Hg0 mi
10:20 am30 °FIce fog.5 mph100%30.33 "Hg0 mi
9:50 am30 °FIce fog.7 mph100%30.33 "Hg0 mi
9:20 am30 °FIce fog.5 mph100%30.33 "Hg0 mi
8:50 am30 °FIce fog.7 mph100%30.33 "Hg0 mi
8:20 am30 °FIce fog.6 mph93%30.33 "Hg0 mi
7:50 am28 °FIce fog.6 mph100%30.33 "Hg0 mi
7:20 am28 °FIce fog.2 mph100%30.33 "Hg0 mi
6:50 am30 °FIce fog.2 mph93%30.33 "Hg0 mi
6:20 am30 °FIce fog.3 mph93%30.33 "Hg0 mi
5:50 am30 °FIce fog.2 mph100%30.33 "Hg0 mi
5:20 am30 °FIce fog.1 mph93%30.36 "Hg0 mi
4:50 am30 °FIce fog.3 mph100%30.36 "Hg0 mi
4:20 am30 °FIce fog.5 mph100%30.36 "Hg0 mi
3:50 am30 °FIce fog.5 mph100%30.36 "Hg0 mi
3:20 am30 °FIce fog.5 mph100%30.36 "Hg0 mi
2:50 am30 °FIce fog.3 mph100%30.36 "Hg0 mi
2:20 am32 °FIce fog.5 mph100%30.36 "Hg0 mi
1:50 am32 °FIce fog.5 mph100%30.36 "Hg0 mi
1:20 am32 °FIce fog.2 mph100%30.36 "Hg0 mi
12:50 am32 °FIce fog.2 mph100%30.36 "Hg0 mi
12:20 am32 °FIce fog.2 mph100%30.36 "Hg0 mi
11:50 pm
Tue, Jan 17
32 °FIce fog.3 mph93%30.36 "Hg0 mi
11:20 pm32 °FIce fog.2 mph100%30.36 "Hg0 mi
10:50 pm32 °FIce fog.1 mph93%30.36 "Hg0 mi
10:20 pm32 °FIce fog.2 mph93%30.36 "Hg0 mi
9:50 pm32 °FIce fog.2 mph93%30.36 "Hg0 mi
9:20 pm32 °FIce fog.3 mph93%30.36 "Hg1 mi
8:50 pm32 °FIce fog.2 mph100%30.36 "Hg2 mi
8:20 pm32 °FPassing clouds.2 mph100%30.36 "Hg5 mi
7:50 pm32 °FPassing clouds.5 mph100%30.36 "Hg6 mi
7:20 pm32 °FLight rain. Passing clouds.3 mph100%30.36 "Hg5 mi
Weather by CustomWeather, © 2017

See weather overviewHow to use our weather pages